Torna al catalogo

STARLINK-34595

AttivoComunicazioniVLEO
NORAD 64749·PAYLOAD·🇺🇸 United States

Lanciato Jul 2, 2025 da Cape Canaveral Space Force Station

Loading…

Prossimi Passaggi (prossime 24 ore)

TLE

AggiornatoSource: CelesTrak SupGP

Epoca: Sep 15, 2026, 02:49 UTC

1 64749C 25144AB  26258.11784722  .00034422  00000+0  10171-2 0  2585
2 64749  53.1599  20.5321 0001284  89.1666 248.8156 15.34369428    18

Traccia STARLINK-34595 in tempo reale con AllMySat

Download on the App Store